Time,TemperatureF,DewpointF,PressureIn,WindDirection,WindDirectionDegrees,WindSpeedMPH,WindSpeedGustMPH,Humidity,HourlyPrecipIn,Conditions,Clouds,dailyrainin,SoftwareType,DateUTC
2013-02-15 00:04:00,59.9,58.0,30.00,East,81,0.0,4.0,92,0.00,,,0.00,weatherlink.com 1.10,2013-02-15 05:04:00,
2013-02-15 00:19:00,60.1,58.0,29.99,East,90,1.0,3.0,92,0.00,,,0.00,weatherlink.com 1.10,2013-02-15 05:19:00,
2013-02-15 00:34:00,60.1,58.0,29.99,ENE,72,0.0,3.0,91,0.00,,,0.00,weatherlink.com 1.10,2013-02-15 05:34:00,
2013-02-15 00:50:00,60.0,58.0,29.98,ENE,68,0.0,2.0,92,0.00,,,0.00,weatherlink.com 1.10,2013-02-15 05:50:00,
2013-02-15 01:05:00,60.0,58.0,29.98,NNE,19,0.0,1.0,92,0.00,,,0.00,weatherlink.com 1.10,2013-02-15 06:05:00,
2013-02-15 01:20:00,60.0,58.0,29.98,ENE,65,0.0,2.0,92,0.00,,,0.00,weatherlink.com 1.10,2013-02-15 06:20:00,
2013-02-15 01:35:00,60.2,58.0,29.98,East,93,1.0,4.0,92,0.00,,,0.00,weatherlink.com 1.10,2013-02-15 06:35:00,
2013-02-15 01:50:00,60.3,58.0,29.98,East,97,1.0,3.0,92,0.00,,,0.00,weatherlink.com 1.10,2013-02-15 06:50:00,
2013-02-15 02:05:00,60.4,58.0,29.98,ESE,105,0.0,0.0,92,0.00,,,0.00,weatherlink.com 1.10,2013-02-15 07:05:00,
2013-02-15 02:20:00,60.3,58.0,29.99,ESE,105,0.0,0.0,92,0.00,,,0.00,weatherlink.com 1.10,2013-02-15 07:20:00,
2013-02-15 02:35:00,60.2,58.0,29.99,ESE,106,0.0,0.0,93,0.00,,,0.00,weatherlink.com 1.10,2013-02-15 07:35:00,
2013-02-15 02:50:00,60.3,58.0,29.99,ESE,105,0.0,0.0,93,0.02,,,0.02,weatherlink.com 1.10,2013-02-15 07:50:00,
2013-02-15 03:05:00,60.2,59.0,29.98,ESE,105,0.0,0.0,94,0.02,,,0.02,weatherlink.com 1.10,2013-02-15 08:05:00,
2013-02-15 03:20:00,60.1,58.0,29.97,SE,141,0.0,1.0,94,0.02,,,0.02,weatherlink.com 1.10,2013-02-15 08:20:00,
2013-02-15 03:35:00,60.2,59.0,29.97,SE,135,0.0,0.0,94,0.03,,,0.03,weatherlink.com 1.10,2013-02-15 08:35:00,
2013-02-15 03:50:00,60.4,59.0,29.96,ESE,123,0.0,1.0,95,0.03,,,0.05,weatherlink.com 1.10,2013-02-15 08:50:00,
2013-02-15 04:05:00,60.5,59.0,29.96,East,82,0.0,1.0,95,0.03,,,0.05,weatherlink.com 1.10,2013-02-15 09:05:00,
2013-02-15 04:20:00,60.5,59.0,29.96,SE,136,0.0,2.0,95,0.03,,,0.05,weatherlink.com 1.10,2013-02-15 09:20:00,
2013-02-15 04:35:00,60.6,59.0,29.96,SE,135,0.0,1.0,95,0.02,,,0.05,weatherlink.com 1.10,2013-02-15 09:35:00,
2013-02-15 04:50:00,60.7,59.0,29.97,SE,135,0.0,0.0,95,0.00,,,0.05,weatherlink.com 1.10,2013-02-15 09:50:00,
2013-02-15 05:05:00,60.7,59.0,29.96,SE,131,0.0,0.0,95,0.00,,,0.05,weatherlink.com 1.10,2013-02-15 10:05:00,
2013-02-15 05:20:00,60.7,59.0,29.97,NNE,17,0.0,0.0,95,0.01,,,0.06,weatherlink.com 1.10,2013-02-15 10:20:00,
2013-02-15 05:35:00,60.8,59.0,29.98,NNE,18,0.0,0.0,95,0.02,,,0.07,weatherlink.com 1.10,2013-02-15 10:35:00,
2013-02-15 05:50:00,60.9,60.0,29.97,NNE,19,0.0,0.0,96,0.03,,,0.08,weatherlink.com 1.10,2013-02-15 10:50:00,
2013-02-15 06:05:00,60.7,59.0,29.97,North,350,0.0,0.0,95,0.03,,,0.08,weatherlink.com 1.10,2013-02-15 11:05:00,
2013-02-15 06:20:00,60.7,60.0,29.98,NNW,348,0.0,0.0,96,0.02,,,0.08,weatherlink.com 1.10,2013-02-15 11:20:00,
2013-02-15 06:35:00,60.9,60.0,29.98,NW,323,0.0,0.0,96,0.01,,,0.08,weatherlink.com 1.10,2013-02-15 11:35:00,
2013-02-15 06:50:00,60.9,60.0,29.99,NW,325,0.0,0.0,96,0.00,,,0.08,weatherlink.com 1.10,2013-02-15 11:50:00,
2013-02-15 07:05:00,60.8,60.0,29.99,NNW,334,0.0,0.0,96,0.00,,,0.08,weatherlink.com 1.10,2013-02-15 12:05:00,
2013-02-15 07:20:00,60.6,60.0,30.00,NNW,330,0.0,0.0,96,0.00,,,0.08,weatherlink.com 1.10,2013-02-15 12:20:00,
2013-02-15 07:35:00,60.3,59.0,30.01,North,8,0.0,1.0,96,0.00,,,0.08,weatherlink.com 1.10,2013-02-15 12:35:00,
2013-02-15 07:50:00,60.3,59.0,30.01,North,8,0.0,0.0,96,0.00,,,0.08,weatherlink.com 1.10,2013-02-15 12:50:00,
2013-02-15 08:05:00,60.4,59.0,30.02,NNW,340,0.0,0.0,96,0.00,,,0.08,weatherlink.com 1.10,2013-02-15 13:05:00,
2013-02-15 08:20:00,60.7,60.0,30.02,NNW,341,0.0,0.0,96,0.00,,,0.08,weatherlink.com 1.10,2013-02-15 13:20:00,
2013-02-15 08:35:00,61.1,60.0,30.02,NE,53,0.0,0.0,96,0.00,,,0.08,weatherlink.com 1.10,2013-02-15 13:35:00,
2013-02-15 08:50:00,61.3,60.0,30.03,NNE,22,0.0,0.0,96,0.00,,,0.08,weatherlink.com 1.10,2013-02-15 13:50:00,
2013-02-15 09:05:00,61.8,61.0,30.04,North,352,0.0,0.0,96,0.00,,,0.08,weatherlink.com 1.10,2013-02-15 14:05:00,
2013-02-15 09:20:00,62.1,61.0,30.04,North,349,0.0,0.0,96,0.00,,,0.08,weatherlink.com 1.10,2013-02-15 14:20:00,
2013-02-15 09:35:00,62.5,61.0,30.04,ENE,65,0.0,0.0,95,0.00,,,0.08,weatherlink.com 1.10,2013-02-15 14:35:00,
2013-02-15 09:50:00,62.6,61.0,30.04,NNE,26,0.0,0.0,95,0.00,,,0.08,weatherlink.com 1.10,2013-02-15 14:50:00,
2013-02-15 10:05:00,63.3,62.0,30.04,NNE,26,0.0,0.0,95,0.00,,,0.08,weatherlink.com 1.10,2013-02-15 15:05:00,
2013-02-15 10:20:00,63.3,62.0,30.04,East,96,0.0,0.0,94,0.00,,,0.08,weatherlink.com 1.10,2013-02-15 15:20:00,
2013-02-15 10:36:00,63.7,62.0,30.04,East,98,0.0,0.0,93,0.00,,,0.08,weatherlink.com 1.10,2013-02-15 15:36:00,
2013-02-15 10:51:00,63.9,62.0,30.05,ENE,67,0.0,0.0,93,0.00,,,0.08,weatherlink.com 1.10,2013-02-15 15:51:00,
2013-02-15 11:06:00,64.4,62.0,30.05,East,86,0.0,0.0,92,0.00,,,0.08,weatherlink.com 1.10,2013-02-15 16:06:00,
2013-02-15 11:21:00,64.6,62.0,30.05,ESE,117,0.0,0.0,91,0.00,,,0.08,weatherlink.com 1.10,2013-02-15 16:21:00,
2013-02-15 11:36:00,64.8,62.0,30.05,NNW,344,0.0,0.0,91,0.00,,,0.08,weatherlink.com 1.10,2013-02-15 16:36:00,
2013-02-15 11:51:00,65.5,63.0,30.04,NNW,335,0.0,0.0,90,0.00,,,0.08,weatherlink.com 1.10,2013-02-15 16:51:00,
2013-02-15 12:06:00,65.9,62.0,30.04,NNW,338,0.0,0.0,88,0.00,,,0.08,weatherlink.com 1.10,2013-02-15 17:06:00,
2013-02-15 12:21:00,65.6,62.0,30.04,NE,56,0.0,0.0,88,0.00,,,0.08,weatherlink.com 1.10,2013-02-15 17:21:00,
2013-02-15 12:36:00,65.2,62.0,30.03,NNE,20,0.0,0.0,88,0.00,,,0.08,weatherlink.com 1.10,2013-02-15 17:36:00,
2013-02-15 12:51:00,65.3,62.0,30.03,North,355,0.0,0.0,88,0.00,,,0.08,weatherlink.com 1.10,2013-02-15 17:51:00,
2013-02-15 13:06:00,66.8,63.0,30.01,NNE,19,0.0,0.0,87,0.00,,,0.08,weatherlink.com 1.10,2013-02-15 18:06:00,
2013-02-15 13:21:00,67.6,63.0,30.00,NNE,23,0.0,0.0,85,0.00,,,0.08,weatherlink.com 1.10,2013-02-15 18:21:00,
2013-02-15 13:36:00,67.6,63.0,30.00,ENE,65,0.0,0.0,85,0.00,,,0.08,weatherlink.com 1.10,2013-02-15 18:36:00,
2013-02-15 13:51:00,67.4,63.0,29.99,East,82,0.0,0.0,85,0.00,,,0.08,weatherlink.com 1.10,2013-02-15 18:51:00,
2013-02-15 14:06:00,67.5,62.0,29.98,East,98,0.0,0.0,83,0.00,,,0.08,weatherlink.com 1.10,2013-02-15 19:06:00,
2013-02-15 14:21:00,67.5,63.0,29.98,East,91,0.0,0.0,84,0.00,,,0.08,weatherlink.com 1.10,2013-02-15 19:21:00,
2013-02-15 14:36:00,68.2,63.0,29.97,SSE,162,0.0,0.0,82,0.00,,,0.08,weatherlink.com 1.10,2013-02-15 19:36:00,
2013-02-15 14:51:00,68.5,63.0,29.96,NNE,23,0.0,0.0,82,0.00,,,0.08,weatherlink.com 1.10,2013-02-15 19:51:00,
2013-02-15 15:06:00,68.4,63.0,29.96,East,98,0.0,0.0,83,0.00,,,0.08,weatherlink.com 1.10,2013-02-15 20:06:00,
2013-02-15 15:21:00,68.6,64.0,29.96,East,100,0.0,0.0,84,0.00,,,0.08,weatherlink.com 1.10,2013-02-15 20:21:00,
2013-02-15 15:36:00,67.5,63.0,29.96,NNE,15,0.0,0.0,85,0.00,,,0.08,weatherlink.com 1.10,2013-02-15 20:36:00,
2013-02-15 15:51:00,67.1,63.0,29.96,NNE,19,0.0,0.0,87,0.00,,,0.08,weatherlink.com 1.10,2013-02-15 20:51:00,
2013-02-15 16:06:00,67.6,63.0,29.96,NNE,17,0.0,0.0,85,0.00,,,0.08,weatherlink.com 1.10,2013-02-15 21:06:00,
2013-02-15 16:21:00,68.0,63.0,29.95,NNE,18,0.0,0.0,83,0.00,,,0.08,weatherlink.com 1.10,2013-02-15 21:21:00,
2013-02-15 16:36:00,67.8,63.0,29.95,NNE,19,0.0,0.0,83,0.00,,,0.08,weatherlink.com 1.10,2013-02-15 21:36:00,
2013-02-15 16:51:00,67.6,62.0,29.95,NNE,18,0.0,0.0,82,0.00,,,0.08,weatherlink.com 1.10,2013-02-15 21:51:00,
2013-02-15 17:06:00,67.6,62.0,29.96,NNE,19,0.0,0.0,82,0.00,,,0.08,weatherlink.com 1.10,2013-02-15 22:06:00,
2013-02-15 17:21:00,68.4,63.0,29.96,NNE,17,0.0,0.0,82,0.00,,,0.08,weatherlink.com 1.10,2013-02-15 22:21:00,
2013-02-15 17:36:00,69.1,62.0,29.95,NNE,19,0.0,0.0,78,0.00,,,0.08,weatherlink.com 1.10,2013-02-15 22:36:00,
2013-02-15 17:51:00,67.8,62.0,29.95,ESE,104,0.0,0.0,81,0.00,,,0.08,weatherlink.com 1.10,2013-02-15 22:51:00,
2013-02-15 18:06:00,66.5,61.0,29.95,ESE,104,0.0,0.0,83,0.00,,,0.08,weatherlink.com 1.10,2013-02-15 23:06:00,
2013-02-15 18:21:00,65.0,60.0,29.94,ESE,104,0.0,0.0,85,0.00,,,0.08,weatherlink.com 1.10,2013-02-15 23:21:00,
2013-02-15 18:36:00,63.8,60.0,29.94,ESE,104,0.0,0.0,88,0.00,,,0.08,weatherlink.com 1.10,2013-02-15 23:36:00,
2013-02-15 18:51:00,63.1,60.0,29.95,ESE,105,0.0,0.0,90,0.00,,,0.08,weatherlink.com 1.10,2013-02-15 23:51:00,
2013-02-15 19:06:00,62.3,60.0,29.95,ESE,104,0.0,0.0,91,0.00,,,0.08,weatherlink.com 1.10,2013-02-16 00:06:00,
2013-02-15 19:21:00,62.2,60.0,29.94,ESE,105,0.0,0.0,92,0.00,,,0.08,weatherlink.com 1.10,2013-02-16 00:21:00,
2013-02-15 19:36:00,61.7,60.0,29.94,ESE,104,0.0,0.0,93,0.00,,,0.08,weatherlink.com 1.10,2013-02-16 00:36:00,
2013-02-15 19:51:00,61.6,60.0,29.95,ESE,104,0.0,0.0,93,0.00,,,0.08,weatherlink.com 1.10,2013-02-16 00:51:00,
2013-02-15 20:06:00,61.5,60.0,29.95,ESE,105,0.0,0.0,94,0.00,,,0.08,weatherlink.com 1.10,2013-02-16 01:06:00,
2013-02-15 20:21:00,61.9,60.0,29.96,ESE,105,0.0,0.0,94,0.00,,,0.08,weatherlink.com 1.10,2013-02-16 01:21:00,
2013-02-15 20:36:00,62.2,61.0,29.96,ESE,105,0.0,0.0,94,0.00,,,0.08,weatherlink.com 1.10,2013-02-16 01:36:00,
2013-02-15 20:51:00,62.3,61.0,29.96,ESE,105,0.0,0.0,95,0.00,,,0.08,weatherlink.com 1.10,2013-02-16 01:51:00,
2013-02-15 21:06:00,62.3,61.0,29.96,ESE,105,0.0,0.0,95,0.00,,,0.08,weatherlink.com 1.10,2013-02-16 02:06:00,
2013-02-15 21:21:00,62.6,61.0,29.96,ESE,104,0.0,0.0,95,0.00,,,0.08,weatherlink.com 1.10,2013-02-16 02:21:00,
2013-02-15 21:36:00,62.8,61.0,29.96,ESE,104,0.0,0.0,95,0.00,,,0.08,weatherlink.com 1.10,2013-02-16 02:36:00,
2013-02-15 21:51:00,62.9,62.0,29.97,ESE,104,0.0,0.0,95,0.00,,,0.08,weatherlink.com 1.10,2013-02-16 02:51:00,
2013-02-15 22:06:00,63.0,62.0,29.98,ESE,105,0.0,0.0,95,0.00,,,0.08,weatherlink.com 1.10,2013-02-16 03:06:00,
2013-02-15 22:21:00,63.0,62.0,29.98,ESE,105,0.0,0.0,95,0.00,,,0.08,weatherlink.com 1.10,2013-02-16 03:21:00,
2013-02-15 22:36:00,63.0,62.0,29.98,ESE,105,0.0,0.0,95,0.00,,,0.08,weatherlink.com 1.10,2013-02-16 03:36:00,
2013-02-15 22:51:00,63.0,62.0,29.98,ESE,104,0.0,0.0,95,0.00,,,0.08,weatherlink.com 1.10,2013-02-16 03:51:00,
2013-02-15 23:06:00,63.2,62.0,29.97,ESE,104,0.0,0.0,95,0.00,,,0.08,weatherlink.com 1.10,2013-02-16 04:06:00,
2013-02-15 23:21:00,63.0,61.0,29.97,ESE,105,0.0,0.0,94,0.00,,,0.08,weatherlink.com 1.10,2013-02-16 04:21:00,
2013-02-15 23:36:00,63.3,61.0,29.97,ESE,105,0.0,0.0,93,0.00,,,0.08,weatherlink.com 1.10,2013-02-16 04:36:00,
2013-02-15 23:51:00,63.3,61.0,29.97,NE,47,0.0,0.0,91,0.00,,,0.08,weatherlink.com 1.10,2013-02-16 04:51:00,